Skip Page Navigation
NASA JPL Caltech
NASA Logo - Jet Propulsion Laboratory + View the NASA Portal
+ Center for Near-Earth Object Studies
JPL Home Earth Solar System Stars & Galaxies Technology
JPL Solar System Dynamics
BODIES ORBITS EPHEMERIDES TOOLS PHYSICAL DATA DISCOVERY FAQ SITE MAP
IMPORTANT: The SSD Announcement email list is now available. Major changes are coming in the near future, including possible hostname and/or URL changes. To be notified of such changes, subscribe to this email list.

Please visit this page for more details.


JPL Small-Body Database Browser
Search: [ help ]  
324431 (2006 SY403)
Classification: Main-belt Asteroid          SPK-ID: 2324431
Ephemeris | Orbit Diagram | Orbital Elements | Mission Design | Physical Parameters | Discovery Circumstances | Close-Approach Data ]

[ show orbit diagram ]
Orbital Elements at Epoch 2458600.5 (2019-Apr-27.0) TDB
Reference: JPL 8 (heliocentric ecliptic J2000)
 Element Value Uncertainty (1-sigma)   Units 
e .1212436274184233 7.8858e-08  
a 2.571432815499475 3.7822e-08 au
q 2.25966297328555 2.1771e-07 au
i 5.586731162859901 1.0884e-05 deg
node 193.5810342822824 8.6781e-05 deg
peri 213.8378069458902 0.00011177 deg
M 359.3797946402274 7.2917e-05 deg
tp 2458603.094742193312
(2019-Apr-29.59474219)
0.0003051 TDB
period 1506.125632217861
4.12
3.3229e-05
9.098e-08
d
yr
n .2390238850592285 5.2735e-09 deg/d
Q 2.8832026577134 4.2407e-08 au
  Orbit Determination Parameters
   # obs. used (total)      91  
   data-arc span      4367 days (11.96 yr)  
   first obs. used      2006-09-30  
   last obs. used      2018-09-14  
   planetary ephem.      DE431  
   SB-pert. ephem.      SB431-N16  
   condition code      0  
   norm. resid. RMS      .63134  
   source      ORB  
   producer      Otto Matic  
   solution date      2019-Jul-14 10:43:56  

Additional Information
 Earth MOID = 1.27091 au 
 Jupiter MOID = 2.48973 au 
 T_jup = 3.412 
[ show covariance matrix ]

Ephemeris | Orbit Diagram | Orbital Elements | Mission Design | Physical Parameters | Discovery Circumstances | Close-Approach Data ]

Physical Parameter Table
Parameter Symbol Value Units Sigma Reference Notes
absolute magnitude H 17.6   n/a MPO455391  

324431 (2006 SY403)          Discovered 2006-Sep-30 by Mt. Lemmon Survey at Mount Lemmon
Reference: 20120406/Numbers.arcLast Updated: 2012-04-09

[ show close-approach data ]
Ephemeris | Orbit Diagram | Orbital Elements | Mission Design | Physical Parameters | Discovery Circumstances | Close-Approach Data ]
ABOUT SSD CREDITS/AWARDS PRIVACY/COPYRIGHT GLOSSARY LINKS
FirstGov 2019-Oct-19 16:20 UT
(server date/time)  
NASA Home Page
Site Manager:   Ryan S. Park
Webmaster  Alan B. Chamberlin